FW4805 Weather Reports


Display with metric or nautical units.
time (UTC)temp
F
wind
direction
speed
MPH
gust
MPH
rain 1hr
in
rain 24hr
in
rain mn
in
humidity
%
barometer
mb
20260507231959 69 249 8.0 16.0 0.00 0.00 0.00 35 1016.4
20260507225959 68 247 7.0 14.0 0.00 0.00 0.00 37 1016.6
20260507224959 69 244 9.0 16.0 0.00 0.00 0.00 37 1016.5
20260507223959 69 246 11.0 16.0 0.00 0.00 0.00 38 1016.5
20260507222959 68 243 10.0 17.0 0.00 0.00 0.00 39 1016.9
20260507221959 69 240 9.0 18.0 0.00 0.00 0.00 39 1017.0
20260507220959 69 244 11.0 17.0 0.00 0.00 0.00 39 1016.9
20260507215959 69 244 13.0 20.0 0.00 0.00 0.00 38 1016.9
20260507214959 69 245 10.0 17.0 0.00 0.00 0.00 38 1016.9
20260507214000 69 246 11.0 18.0 0.00 0.00 0.00 39 1016.9
20260507213000 68 245 9.0 18.0 0.00 0.00 0.00 39 1016.9
20260507212000 69 242 9.0 16.0 0.00 0.00 0.00 39 1017.0
20260507211000 69 241 9.0 16.0 0.00 0.00 0.00 39 1016.9
20260507205000 68 241 10.0 16.0 0.00 0.00 0.00 39 1016.8
20260507203959 68 240 12.0 23.0 0.00 0.00 0.00 39 1016.8
20260507202959 68 240 10.0 20.0 0.00 0.00 0.00 38 1016.8
20260507201959 68 237 10.0 17.0 0.00 0.00 0.00 39 1016.7
20260507200959 68 242 12.0 22.0 0.00 0.00 0.00 40 1016.8
20260507195959 67 244 12.0 19.0 0.00 0.00 0.00 43 1016.9
20260507194959 67 251 13.0 20.0 0.00 0.00 0.00 44 1016.8
20260507193959 68 255 12.0 18.0 0.00 0.00 0.00 43 1016.9
20260507192000 68 261 12.0 16.0 0.00 0.00 0.00 42 1017.1
20260507191000 68 261 11.0 16.0 0.00 0.00 0.00 38 1016.9
20260507190000 69 258 9.0 13.0 0.00 0.00 0.00 37 1016.9
20260507185000 69 249 9.0 16.0 0.00 0.00 0.00 36 1016.9
20260507184000 69 243 9.0 16.0 0.00 0.00 0.00 35 1016.8
20260507183000 69 243 7.0 12.0 0.00 0.00 0.00 35 1016.8
20260507182000 69 240 6.0 12.0 0.00 0.00 0.00 34 1016.9
20260507181000 69 250 3.0 11.0 0.00 0.00 0.00 35 1016.8
20260507180000 69 249 4.0 13.0 0.00 0.00 0.00 34 1016.8
20260507175000 69 249 3.0 12.0 0.00 0.00 0.00 34 1016.8
20260507174000 69 248 5.0 11.0 0.00 0.00 0.00 34 1016.7
20260507172959 69 246 5.0 16.0 0.00 0.00 0.00 35 1016.8
20260507171959 69 253 6.0 14.0 0.00 0.00 0.00 34 1016.8
20260507171000 69 249 7.0 11.0 0.00 0.00 0.00 35 1016.6
20260507165959 70 249 7.0 13.0 0.00 0.00 0.00 36 1016.7
20260507164959 70 247 6.0 12.0 0.00 0.00 0.00 37 1016.7
20260507162000 71 248 4.0 14.0 0.00 0.00 0.00 37 1016.8
20260507161000 71 242 5.0 12.0 0.00 0.00 0.00 38 1016.8
20260507160000 72 231 5.0 12.0 0.00 0.00 0.00 38 1017.0
20260507155000 72 240 4.0 16.0 0.00 0.00 0.00 38 1016.8
20260507152959 71 242 7.0 17.0 0.00 0.00 0.00 39 1016.7
20260507152000 71 248 7.0 16.0 0.00 0.00 0.00 39 1016.7
20260507151000 71 248 10.0 18.0 0.00 0.00 0.00 39 1016.9
20260507145000 72 252 13.0 18.0 0.00 0.00 0.00 41 1016.6
20260507144000 72 247 13.0 17.0 0.00 0.00 0.00 40 1016.4
20260507143000 73 246 13.0 19.0 0.00 0.00 0.00 40 1016.4
20260507142000 73 249 13.0 17.0 0.00 0.00 0.00 41 1016.3
20260507141000 73 251 16.0 22.0 0.00 0.00 0.00 41 1016.4
20260507140000 72 252 15.0 18.0 0.00 0.00 0.00 41 1016.3
20260507135000 72 251 15.0 18.0 0.00 0.00 0.00 42 1016.6
20260507134000 73 248 16.0 19.0 0.00 0.00 0.00 39 1016.6
20260507133000 75 250 14.0 22.0 0.00 0.00 0.00 37 1016.6
20260507130000 75 254 13.0 20.0 0.00 0.00 0.00 37 1016.6
20260507125000 76 261 14.0 23.0 0.00 0.00 0.00 37 1016.6
20260507122959 75 263 15.0 23.0 0.00 0.00 0.00 32 1016.7
20260507122000 76 260 14.0 18.0 0.00 0.00 0.00 32 1016.9
20260507121000 75 264 16.0 24.0 0.00 0.00 0.00 34 1016.9
20260507120000 74 265 19.0 23.0 0.00 0.00 0.00 37 1017.1
20260507114000 75 270 17.0 25.0 0.00 0.00 0.00 34 1017.1
20260507113000 75 272 17.0 22.0 0.00 0.00 0.00 37 1017.0
20260507112000 75 270 17.0 25.0 0.00 0.00 0.00 38 1016.9
20260507111000 75 270 16.0 22.0 0.00 0.00 0.00 41 1016.9
20260507110000 75 268 16.0 18.0 0.00 0.00 0.00 39 1016.8
20260507104000 75 273 16.0 19.0 0.00 0.00 0.00 39 1016.8
20260507103000 74 268 17.0 18.0 0.00 0.00 0.00 35 1016.7
20260507102000 75 270 15.0 22.0 0.00 0.00 0.00 38 1016.7
20260507101000 75 278 15.0 20.0 0.00 0.00 0.00 39 1016.5
20260507095000 75 270 15.0 22.0 0.00 0.00 0.00 33 1016.4
20260507094000 75 270 16.0 19.0 0.00 0.00 0.00 34 1016.7
20260507093000 74 270 17.0 25.0 0.00 0.00 0.00 40 1016.8
20260507092001 74 265 15.0 24.0 0.00 0.00 0.00 43 1016.9
20260507091000 74 269 15.0 20.0 0.00 0.00 0.00 41 1017.0
20260507090000 74 264 15.0 22.0 0.00 0.00 0.00 41 1017.0
20260507085000 73 261 14.0 17.0 0.00 0.00 0.00 46 1016.9
20260507084000 73 265 15.0 19.0 0.00 0.00 0.00 45 1016.9
20260507083000 73 267 16.0 23.0 0.00 0.00 0.00 46 1017.0
20260507082000 73 270 16.0 20.0 0.00 0.00 0.00 41 1016.8
20260507081000 74 270 16.0 23.0 0.00 0.00 0.00 40 1016.6
20260507080000 74 263 13.0 17.0 0.00 0.00 0.00 37 1016.6
20260507075000 74 262 12.0 17.0 0.00 0.00 0.00 35 1016.5
20260507074000 75 260 10.0 18.0 0.00 0.00 0.00 35 1016.5
20260507073000 75 248 8.0 13.0 0.00 0.00 0.00 34 1016.5
20260507072000 75 265 7.0 13.0 0.00 0.00 0.00 33 1016.3
20260507071000 75 251 6.0 11.0 0.00 0.00 0.00 33 1016.3
20260507070000 74 224 4.0 11.0 0.00 0.00 0.00 34 1016.4
20260507064000 72 90 3.0 5.0 0.00 0.00 0.00 46 1016.3
20260507061000 70 88 5.0 8.0 0.00 0.00 0.00 53 1016.2
20260507060000 69 88 5.0 11.0 0.00 0.00 0.00 54 1016.2
20260507055000 72 148 1.0 4.0 0.00 0.00 0.00 44 1016.2
20260507054000 71 203 1.0 6.0 0.00 0.00 0.00 47 1016.2
20260507053000 70 215 2.0 6.0 0.00 0.00 0.00 51 1016.2
20260507052000 69 233 3.0 8.0 0.00 0.00 0.00 52 1016.2
20260507051000 68 243 5.0 12.0 0.00 0.00 0.00 56 1016.2
20260507045000 67 250 6.0 12.0 0.00 0.00 0.00 60 1016.0
20260507044000 66 255 8.0 13.0 0.00 0.00 0.00 62 1015.8
20260507042000 65 261 3.0 12.0 0.00 0.00 0.00 63 1015.8
20260507041000 64 253 2.0 10.0 0.00 0.00 0.00 63 1015.6
20260507040001 64 268 5.0 13.0 0.00 0.00 0.00 62 1015.5
20260507035000 64 270 6.0 12.0 0.00 0.00 0.00 63 1015.5
20260507034000 64 268 4.0 11.0 0.00 0.00 0.00 64 1015.5
20260507032000 64 265 5.0 13.0 0.00 0.00 0.00 63 1015.3
20260507031000 64 269 5.0 11.0 0.00 0.00 0.00 62 1015.3
20260507030000 64 265 5.0 10.0 0.00 0.00 0.00 60 1015.1
20260507024001 62 317 0.0 4.0 0.00 0.00 0.00 42 1014.8
20260507021000 62 292 1.0 5.0 0.00 0.00 0.00 44 1014.6
20260507020000 62 298 0.0 1.0 0.00 0.00 0.00 42 1014.5
20260507015000 62 301 0.0 1.0 0.00 0.00 0.00 44 1014.2
20260507012001 63 280 1.0 7.0 0.00 0.00 0.00 39 1014.4
20260507011001 63 270 3.0 7.0 0.00 0.00 0.00 39 1014.4
20260507010001 63 270 4.0 6.0 0.00 0.00 0.00 41 1014.4
20260507005001 64 267 5.0 10.0 0.00 0.00 0.00 40 1014.7
20260507003000 63 270 6.0 10.0 0.00 0.00 0.00 43 1014.8
20260507002000 63 266 5.0 7.0 0.00 0.00 0.00 43 1014.8
20260507001000 63 270 5.0 8.0 0.00 0.00 0.00 42 1014.9
20260507000000 64 272 3.0 5.0 0.00 0.00 0.00 42 1015.0
20260506235000 63 267 2.0 5.0 0.00 0.00 0.00 43 1014.9
20260506234000 62 270 1.0 5.0 0.00 0.00 0.00 44 1014.8
20260506233001 64 267 1.0 4.0 0.00 0.00 0.00 40 1014.9